Paganella, Italy

5:45 PM CET on February 19, 2017 (GMT +0100)
Paganella

Weather History for LIVP - October, 2012

Change the Weather History Date:

Friday, October 5, 2012

  Actual Average Record
Temperature  
Mean Temperature 43 °F -  
Max Temperature 46 °F 42 °F 57 °F (2007)
Min Temperature 40 °F 34 °F 24 °F (2008)
Degree Days  
Heating Degree Days 22    
Moisture  
Dew Point 40 °F    
Average Humidity 88    
Maximum Humidity 100    
Minimum Humidity 52    
Precipitation  
Precipitation 0.00 in 0.09 in - ()
Sea Level Pressure  
Sea Level Pressure 30.22 in    
Wind  
Wind Speed 6 mph ()    
Max Wind Speed 12 mph    
Max Gust Speed -    
Visibility 1.8 miles    
Events Fog    
Averages and records for this station are not official NWS values.
T = Trace of Precipitation, MM = Missing Value Source: Averaged Metar Reports

Daily Weather History Graph

Daily Weather History Graph

Search for Another Location

Airport or City:

Trip Planner

Search our weather history database for the weather conditions in past years. The results will help you decide how hot, cold, wet, or windy it might be!

Date:

Astronomy

Oct. 05, 2012 Rise Set
Actual Time 7:19 AM CEST 6:47 PM CEST
Civil Twilight 6:49 AM CEST 7:17 PM CEST
Nautical Twilight 6:15 AM CEST 7:52 PM CEST
Astronomical Twilight 5:40 AM CEST 8:27 PM CEST
Moon 9:41 PM CEST (10/5) 12:29 PM CEST (10/5)
Length of Visible Light 12h 27m
Length of Day
11h 27m
Waning Gibbous, 76% of the Moon is Illuminated
Oct 5
Waning Gibbous
Oct 8
Last Quarter
Oct 15
New
Oct 22
First Quarter
Oct 29
Full

Hourly Weather History & Observations

Time (CEST) Temp. Windchill Dew Point Humidity Pressure Visibility Wind Dir Wind Speed Gust Speed Precip Events Conditions
12:55 AM 41.0 °F 37.1 °F 37.4 °F 87% 30.18 in 6.2 mi NNE 5.8 mph - N/A   Partly Cloudy
1:55 AM 41.0 °F - 37.4 °F 87% 30.18 in - South 2.3 mph - N/A   Clear
2:00 AM 42 °F - 37 °F 75%  in 6 mi South 2.3 mph - -   Partly Cloudy
2:55 AM 41.0 °F 39.0 °F 32.0 °F 70% 30.18 in 6.2 mi SSW 3.5 mph - N/A   Partly Cloudy
3:55 AM 41.0 °F 38.0 °F 32.0 °F 70% 30.18 in 6.2 mi SSW 4.6 mph - N/A   Partly Cloudy
4:55 AM 41.0 °F 38.0 °F 30.2 °F 65% 30.18 in - SSW 4.6 mph - N/A   Clear
5:00 AM 42 °F - 30 °F 52%  in 19 mi SSW 4.6 mph - -  
5:55 AM 41.0 °F 39.0 °F 30.2 °F 65% 30.18 in - SSW 3.5 mph - N/A   Clear
6:55 AM 41.0 °F 35.2 °F 33.8 °F 76% 30.18 in - SE 9.2 mph - N/A   Clear
7:55 AM 41.0 °F 35.8 °F 35.6 °F 81% 30.18 in - South 8.1 mph - N/A   Clear
8:00 AM 40 °F - 35 °F 75%  in 25 mi South 8.1 mph - -   Clear
8:55 AM 41.0 °F 34.7 °F 37.4 °F 87% 30.21 in - SSW 10.4 mph - N/A   Clear
9:55 AM 41.0 °F 34.7 °F 39.2 °F 93% 30.21 in 0.1 mi South 10.4 mph - N/A Fog Fog
10:55 AM 42.8 °F 38.0 °F 41.0 °F 93% 30.24 in 0.0 mi SSW 8.1 mph - N/A Fog Fog
11:00 AM 42 °F - 41 °F 96%  in 0 mi SSW 8.1 mph - - Fog Heavy Fog
11:55 AM 42.8 °F 38.0 °F 42.8 °F 100% 30.24 in 0.0 mi South 8.1 mph - N/A Fog Fog
12:55 PM 42.8 °F 36.6 °F 42.8 °F 100% 30.24 in 0.0 mi SW 11.5 mph - N/A Fog Fog
1:55 PM 42.8 °F 37.0 °F 42.8 °F 100% 30.24 in 0.0 mi SW 10.4 mph - N/A Fog Fog
2:00 PM 43 °F - 42 °F 95%  in 0 mi SW 10.4 mph - - Fog Heavy Fog
2:55 PM 44.6 °F 40.7 °F 44.6 °F 100% 30.24 in 0.0 mi SW 6.9 mph - N/A Fog Fog
3:55 PM 46.4 °F 41.9 °F 42.8 °F 87% 30.24 in 0.2 mi SW 9.2 mph - N/A Fog Fog
4:55 PM 46.4 °F 41.5 °F 42.8 °F 87% 30.24 in 0.0 mi SW 10.4 mph - N/A Fog Fog
5:00 PM 46 °F - 44 °F 88%  in 0 mi SW 10.4 mph - - Fog Heavy Fog
5:55 PM 44.6 °F 38.8 °F 44.6 °F 100% 30.24 in 0.0 mi SSW 11.5 mph - N/A Fog Fog
6:55 PM 44.6 °F 39.2 °F 44.6 °F 100% 30.24 in 0.0 mi SSW 10.4 mph - N/A Fog Fog
7:55 PM 44.6 °F 39.2 °F 44.6 °F 100% 30.24 in 0.0 mi WSW 10.4 mph - N/A Fog Fog
8:00 PM 44 °F - 44 °F 100%  in 0 mi WSW 10.4 mph - - Fog Heavy Fog
8:55 PM 44.6 °F 41.4 °F 44.6 °F 100% 30.24 in 0.0 mi SSW 5.8 mph - N/A Fog Fog
9:55 PM 44.6 °F 40.7 °F 44.6 °F 100% 30.24 in 0.0 mi South 6.9 mph - N/A Fog Fog
10:55 PM 42.8 °F 41.1 °F 42.8 °F 100% 30.27 in 0.0 mi South 3.5 mph - N/A Fog Fog
11:00 PM 44 °F - 44 °F 97%  in 0 mi South 3.5 mph - - Fog Heavy Fog
11:55 PM 42.8 °F - 42.8 °F 100% 30.27 in 0.0 mi SW 2.3 mph - N/A Fog Fog